period_start,C,m1,H,J0,J1,J2,J3,J4,J5,JA,JB,JC,JD,JJ,JK,JN,#
2014-03-22 00:00:23,0.10,5.48,0.00,24.64,29.68,32.47,5.84,32.71,1005.22,2029.01,1784.64,2126.03,2302.98,350.21,318.77,30.42,0000 0000 0000 0000 000000
2014-03-22 00:01:23,0.14,5.48,0.00,24.64,29.68,32.48,6.03,32.92,1005.17,2029.02,1784.24,2126.01,2302.84,350.27,318.80,30.43,0000 0000 0000 0000 000000
2014-03-22 00:02:23,0.21,5.48,0.00,24.65,29.69,32.50,5.97,32.75,1005.12,2029.04,1784.08,2125.91,2302.45,349.68,318.24,30.44,0000 0000 0000 0000 000000
2014-03-22 00:03:24,0.23,5.48,0.00,24.65,29.69,32.48,6.07,32.88,1005.09,2029.04,1784.01,2125.60,2302.19,350.78,319.23,30.44,0000 0000 0000 0000 000000
2014-03-22 00:04:24,0.21,5.49,0.00,24.66,29.70,32.48,6.02,32.83,1005.13,2029.05,1783.82,2125.26,2302.07,350.40,318.88,30.45,0000 0000 0000 0000 000000
2014-03-22 00:05:24,0.24,5.49,0.00,24.67,29.70,32.49,5.92,32.79,1005.05,2029.04,1783.39,2125.10,2302.01,350.07,318.55,30.45,0000 0000 0000 0000 000000
2014-03-22 00:06:25,0.22,5.49,0.00,24.67,29.70,32.47,5.87,32.83,1005.11,2029.04,1783.14,2125.04,2301.98,349.81,318.29,30.46,0000 0000 0000 0000 000000
2014-03-22 00:07:25,0.14,5.49,0.00,24.67,29.70,32.50,5.90,32.79,1005.13,2029.07,1783.03,2125.00,2301.71,349.44,318.00,30.46,0000 0000 0000 0000 000000
2014-03-22 00:08:25,0.15,5.49,0.00,24.67,29.70,32.48,5.83,32.79,1005.09,2029.07,1782.74,2124.84,2301.33,349.74,318.41,30.47,0000 0000 0000 0000 000000
2014-03-22 00:09:25,0.27,5.49,0.00,24.67,29.70,32.44,6.02,32.75,1005.08,2029.05,1782.31,2124.51,2301.12,349.85,318.24,30.48,0000 0000 0000 0000 000000
2014-03-22 00:10:26,0.32,5.49,0.00,24.67,29.70,32.45,6.02,32.71,1005.08,2029.05,1782.10,2124.21,2301.04,349.56,318.09,30.48,0000 0000 0000 0000 000000
2014-03-22 00:11:26,0.22,5.49,0.00,24.67,29.70,32.48,5.93,32.88,1005.05,2029.05,1782.01,2124.08,2301.00,348.99,317.85,30.49,0000 0000 0000 0000 000000
2014-03-22 00:12:26,0.11,5.50,0.00,24.67,29.70,32.47,5.91,32.92,1005.09,2029.05,1781.75,2124.03,2300.76,349.55,318.19,30.49,0000 0000 0000 0000 000000
2014-03-22 00:13:26,0.16,5.50,0.00,24.67,29.70,32.45,5.85,32.88,1005.06,2029.03,1781.33,2123.98,2300.34,349.58,317.98,30.50,0000 0000 0000 0000 000000
2014-03-22 00:14:27,0.25,5.50,0.00,24.67,29.70,32.49,6.05,32.75,1005.09,2029.05,1781.12,2123.80,2300.15,349.92,318.76,30.51,0000 0000 0000 0000 000000
2014-03-22 00:15:27,0.22,5.50,0.00,24.67,29.70,32.51,5.83,32.88,1005.08,2029.02,1781.03,2123.41,2300.06,349.60,318.13,30.51,0000 0000 0000 0000 000000
2014-03-22 00:16:27,0.22,5.50,0.00,24.67,29.71,32.48,6.01,32.75,1005.02,2029.03,1780.73,2123.17,2300.00,349.81,318.30,30.52,0000 0000 0000 0000 000000
2014-03-22 00:17:27,0.21,5.50,0.00,24.67,29.72,32.47,5.88,32.75,1005.00,2029.02,1780.29,2123.06,2299.96,349.77,318.26,30.52,0000 0000 0000 0000 000000
2014-03-22 00:18:28,0.19,5.50,0.00,24.68,29.72,32.45,5.92,32.92,1004.98,2029.04,1780.11,2123.02,2299.72,349.49,317.99,30.53,0000 0000 0000 0000 000000
2014-03-22 00:19:28,0.15,5.50,0.00,24.69,29.72,32.46,5.88,32.79,1005.05,2029.06,1780.03,2122.99,2299.30,350.03,318.41,30.53,0000 0000 0000 0000 000000
2014-03-22 00:20:28,0.17,5.50,0.00,24.70,29.72,32.47,5.87,32.79,1005.14,2029.10,1779.80,2122.77,2299.11,350.66,319.22,30.54,0000 0000 0000 0000 000000
2014-03-22 00:21:29,0.26,5.51,0.00,24.70,29.72,32.47,5.90,32.79,1005.13,2029.08,1779.36,2122.37,2299.04,349.12,317.68,30.55,0000 0000 0000 0000 000000
2014-03-22 00:22:29,0.33,5.51,0.00,24.70,29.72,32.50,5.92,32.79,1005.12,2029.08,1779.13,2122.14,2299.00,350.11,318.57,30.55,0000 0000 0000 0000 000000
2014-03-22 00:23:29,0.21,5.51,0.00,24.69,29.72,32.48,6.01,32.63,1005.12,2029.08,1779.05,2122.05,2298.86,349.32,317.96,30.56,0000 0000 0000 0000 000000
2014-03-22 00:24:29,0.11,5.51,0.00,24.69,29.72,32.48,5.78,32.79,1005.14,2029.08,1778.89,2122.01,2298.47,350.09,318.72,30.56,0000 0000 0000 0000 000000
2014-03-22 00:25:30,0.15,5.51,0.00,24.68,29.72,32.46,5.93,32.83,1005.12,2029.09,1778.49,2121.98,2298.17,350.12,318.61,30.57,0000 0000 0000 0000 000000
2014-03-22 00:26:30,0.24,5.51,0.00,24.69,29.72,32.44,6.02,32.63,1005.20,2029.06,1778.18,2121.77,2298.06,350.56,319.08,30.58,0000 0000 0000 0000 000000
2014-03-22 00:27:30,0.21,5.51,0.00,24.70,29.72,32.46,5.87,32.83,1005.15,2029.04,1778.05,2121.34,2297.98,349.17,317.73,30.58,0000 0000 0000 0000 000000
2014-03-22 00:28:31,0.22,5.51,0.00,24.70,29.73,32.43,5.91,32.75,1005.10,2029.04,1777.98,2121.12,2297.93,350.12,318.42,30.59,0000 0000 0000 0000 000000
2014-03-22 00:29:31,0.16,5.52,0.00,24.70,29.73,32.43,5.94,32.92,1005.15,2029.02,1777.65,2121.04,2297.55,349.64,318.16,30.59,0000 0000 0000 0000 000000
2014-03-22 00:30:31,0.21,5.52,0.00,24.71,29.73,32.49,5.89,32.83,1005.17,2029.02,1777.25,2121.01,2297.25,350.04,318.86,30.60,0000 0000 0000 0000 000000
2014-03-22 00:31:31,0.24,5.52,0.00,24.72,29.74,32.49,5.86,32.92,1005.10,2029.06,1777.09,2120.98,2297.09,350.20,318.64,30.61,0000 0000 0000 0000 000000
2014-03-22 00:32:32,0.14,5.52,0.00,24.72,29.74,32.48,5.85,32.92,1005.11,2029.10,1777.02,2120.80,2297.02,349.70,318.18,30.61,0000 0000 0000 0000 000000
2014-03-22 00:33:32,0.15,5.52,0.00,24.73,29.75,32.46,5.95,33.00,1005.04,2029.10,1776.89,2120.43,2296.99,349.51,318.07,30.62,0000 0000 0000 0000 000000
2014-03-22 00:34:32,0.21,5.52,0.00,24.74,29.75,32.43,6.00,32.83,1004.93,2029.08,1776.42,2120.17,2296.77,350.17,318.53,30.62,0000 0000 0000 0000 000000
2014-03-22 00:35:33,0.31,5.52,0.00,24.75,29.75,32.46,6.00,32.83,1004.91,2029.04,1776.16,2120.06,2296.37,350.19,318.53,30.63,0000 0000 0000 0000 000000
2014-03-22 00:36:33,0.18,5.52,0.00,24.77,29.75,32.47,5.91,32.92,1004.92,2029.02,1776.05,2120.01,2296.13,350.17,318.49,30.63,0000 0000 0000 0000 000000
2014-03-22 00:37:33,0.12,5.53,0.00,24.77,29.75,32.46,5.92,32.67,1004.92,2029.03,1775.96,2119.97,2296.05,349.32,318.04,30.64,0000 0000 0000 0000 000000
2014-03-22 00:38:33,0.11,5.53,0.00,24.77,29.75,32.45,5.83,32.83,1004.91,2029.02,1775.61,2119.68,2296.01,350.01,318.54,30.65,0000 0000 0000 0000 000000
2014-03-22 00:39:34,0.21,5.53,0.00,24.77,29.75,32.45,6.06,33.00,1004.93,2029.00,1775.26,2119.34,2295.97,350.42,318.72,30.65,0000 0000 0000 0000 000000
2014-03-22 00:40:34,0.27,5.53,0.00,24.76,29.75,32.48,5.79,32.96,1004.94,2029.02,1775.09,2119.16,2295.62,350.62,318.91,30.66,0000 0000 0000 0000 000000
2014-03-22 00:41:34,0.21,5.53,0.00,24.75,29.75,32.50,5.99,32.79,1004.92,2029.03,1775.01,2119.05,2295.28,350.00,318.51,30.66,0000 0000 0000 0000 000000
2014-03-22 00:42:35,0.14,5.53,0.00,24.75,29.75,32.48,5.92,32.88,1004.91,2029.02,1774.87,2119.02,2295.11,349.71,318.44,30.67,0000 0000 0000 0000 000000
2014-03-22 00:43:35,0.13,5.53,0.00,24.75,29.76,32.44,6.13,33.08,1004.90,2029.02,1774.44,2118.97,2295.04,350.42,318.74,30.68,0000 0000 0000 0000 000000
2014-03-22 00:44:35,0.19,5.53,0.00,24.76,29.77,32.42,5.82,32.96,1004.90,2029.00,1774.16,2118.66,2294.97,349.63,317.95,30.68,0000 0000 0000 0000 000000
2014-03-22 00:45:36,0.23,5.54,0.00,24.76,29.77,32.47,5.91,32.88,1004.90,2029.02,1774.05,2118.31,2294.76,350.09,318.43,30.69,0000 0000 0000 0000 000000
2014-03-22 00:46:36,0.24,5.54,0.00,24.76,29.77,32.47,5.96,32.63,1004.90,2029.01,1773.94,2118.13,2294.36,351.27,319.57,30.69,0000 0000 0000 0000 000000
2014-03-22 00:47:36,0.21,5.54,0.00,24.76,29.77,32.46,5.91,32.88,1004.90,2029.01,1773.59,2118.04,2294.16,349.98,318.68,30.70,0000 0000 0000 0000 000000
2014-03-22 00:48:36,0.20,5.54,0.00,24.77,29.77,32.50,5.96,32.88,1004.90,2029.00,1773.23,2118.00,2294.06,350.71,318.63,30.70,0000 0000 0000 0000 000000
2014-03-22 00:49:37,0.16,5.54,0.00,24.77,29.77,32.49,5.92,32.96,1004.90,2029.00,1773.08,2117.92,2294.00,349.78,318.28,30.71,0000 0000 0000 0000 000000
2014-03-22 00:50:37,0.12,5.54,0.00,24.77,29.77,32.50,5.79,32.88,1004.91,2029.00,1772.99,2117.61,2293.90,349.26,317.50,30.72,0000 0000 0000 0000 000000
2014-03-22 00:51:37,0.20,5.54,0.00,24.77,29.77,32.50,6.04,32.83,1004.90,2029.00,1772.64,2117.30,2293.57,350.72,319.13,30.72,0000 0000 0000 0000 000000
2014-03-22 00:52:37,0.33,5.54,0.00,24.78,29.77,32.51,5.93,32.54,1004.92,2029.00,1772.26,2117.11,2293.24,350.82,319.07,30.73,0000 0000 0000 0000 000000
2014-03-22 00:53:38,0.28,5.55,0.00,24.79,29.77,32.54,5.93,32.67,1004.92,2029.02,1772.09,2117.04,2293.08,349.93,318.51,30.73,0000 0000 0000 0000 000000
2014-03-22 00:54:38,0.13,5.55,0.00,24.79,29.77,32.51,5.82,32.67,1004.90,2029.01,1772.02,2117.01,2293.03,349.96,318.89,30.74,0000 0000 0000 0000 000000
2014-03-22 00:55:38,0.06,5.55,0.00,24.80,29.77,32.50,5.92,32.92,1004.91,2029.00,1771.86,2116.97,2293.01,351.02,319.40,30.75,0000 0000 0000 0000 000000
2014-03-22 00:56:39,0.09,5.55,0.00,24.80,29.77,32.50,5.88,32.83,1004.90,2029.00,1771.48,2116.71,2292.87,349.44,318.13,30.75,0000 0000 0000 0000 000000
2014-03-22 00:57:39,0.26,5.55,0.00,24.80,29.77,32.50,5.99,32.79,1004.90,2029.02,1771.18,2116.37,2292.49,350.27,318.71,30.76,0000 0000 0000 0000 000000
2014-03-22 00:58:39,0.35,5.55,0.00,24.80,29.77,32.51,5.84,32.54,1004.91,2029.02,1771.06,2116.13,2292.18,349.47,317.83,30.76,0000 0000 0000 0000 000000
2014-03-22 00:59:39,0.22,5.55,0.00,24.80,29.78,32.53,6.00,32.88,1004.92,2029.01,1771.01,2116.05,2292.06,349.63,318.33,30.77,0000 0000 0000 0000 000000
2014-03-22 01:00:40,0.10,5.55,0.00,24.80,29.79,32.48,5.99,32.79,1004.90,2029.02,1770.75,2116.01,2292.00,350.56,318.81,30.78,0000 0000 0000 0000 000000
2014-03-22 01:01:40,0.14,5.55,0.00,24.82,29.80,32.46,6.01,32.58,1004.90,2029.02,1770.35,2115.97,2291.98,350.45,318.55,30.78,0000 0000 0000 0000 000000
2014-03-22 01:02:40,0.17,5.55,0.00,24.82,29.80,32.49,5.92,32.46,1004.90,2029.00,1770.13,2115.75,2291.76,349.93,318.59,30.79,0000 0000 0000 0000 000000
2014-03-22 01:03:41,0.22,5.55,0.00,24.82,29.80,32.48,5.97,32.96,1004.90,2029.00,1770.04,2115.36,2291.38,349.43,317.75,30.79,0000 0000 0000 0000 000000
2014-03-22 01:04:41,0.26,5.56,0.00,24.83,29.80,32.51,5.94,32.83,1004.90,2029.00,1769.88,2115.15,2291.15,349.76,318.09,30.80,0000 0000 0000 0000 000000
2014-03-22 01:05:41,0.23,5.56,0.00,24.84,29.80,32.53,5.92,32.71,1004.89,2029.00,1769.43,2115.05,2291.05,349.60,317.88,30.80,0000 0000 0000 0000 000000
2014-03-22 01:06:41,0.20,5.56,0.00,24.85,29.80,32.54,5.97,32.75,1004.90,2029.00,1769.16,2115.01,2291.00,350.33,318.54,30.81,0000 0000 0000 0000 000000
2014-03-22 01:07:42,0.13,5.56,0.00,24.87,29.80,32.53,5.89,32.71,1004.90,2029.00,1769.06,2114.96,2290.86,349.09,317.40,30.82,0000 0000 0000 0000 000000
2014-03-22 01:08:42,0.13,5.56,0.00,24.87,29.80,32.50,6.02,32.71,1004.88,2029.00,1768.99,2114.69,2290.42,350.52,318.69,30.82,0000 0000 0000 0000 000000
2014-03-22 01:09:42,0.24,5.56,0.00,24.87,29.80,32.48,6.10,32.67,1004.90,2029.00,1768.69,2114.33,2290.16,350.29,318.49,30.83,0000 0000 0000 0000 000000
2014-03-22 01:10:42,0.30,5.57,0.00,24.87,29.81,32.49,5.98,32.79,1004.90,2029.00,1768.29,2114.15,2290.05,349.49,317.76,30.83,0000 0000 0000 0000 000000
2014-03-22 01:11:43,0.25,5.57,0.00,24.87,29.82,32.49,5.86,32.79,1004.91,2029.00,1768.10,2114.05,2290.01,350.07,318.29,30.84,0000 0000 0000 0000 000000
2014-03-22 01:12:43,0.13,5.57,0.00,24.87,29.82,32.48,5.93,32.75,1004.92,2029.00,1768.03,2114.02,2289.99,350.25,318.45,30.85,0000 0000 0000 0000 000000
2014-03-22 01:13:43,0.05,5.57,0.00,24.87,29.82,32.51,5.78,32.75,1004.90,2029.00,1767.94,2113.99,2289.85,350.53,318.70,30.85,0000 0000 0000 0000 000000
2014-03-22 01:14:43,0.11,5.57,0.00,24.87,29.82,32.48,6.14,32.67,1004.90,2029.00,1767.55,2113.82,2289.44,351.17,319.29,30.86,0000 0000 0000 0000 000000
2014-03-22 01:15:43,0.27,5.57,0.00,24.87,29.82,32.45,5.73,32.79,1004.91,2029.00,1767.22,2113.47,2289.20,348.90,317.35,30.86,0000 0000 0000 0000 000000
2014-03-22 01:16:44,0.31,5.57,0.00,24.87,29.82,32.48,5.84,32.67,1004.93,2029.00,1767.08,2113.20,2289.07,349.77,318.02,30.87,0000 0000 0000 0000 000000
2014-03-22 01:17:44,0.19,5.57,0.00,24.87,29.82,32.50,5.94,32.63,1004.92,2029.00,1767.02,2113.07,2289.02,350.16,318.37,30.87,0000 0000 0000 0000 000000
2014-03-22 01:18:44,0.08,5.57,0.00,24.89,29.82,32.46,5.97,32.88,1004.91,2029.00,1766.79,2113.02,2288.95,349.75,318.35,30.88,0000 0000 0000 0000 000000
2014-03-22 01:19:45,0.15,5.57,0.00,24.89,29.83,32.45,5.83,32.96,1004.90,2029.00,1766.35,2112.99,2288.77,349.27,317.87,30.89,0000 0000 0000 0000 000000
2014-03-22 01:20:45,0.21,5.58,0.00,24.90,29.84,32.46,6.02,32.71,1004.90,2029.00,1766.13,2112.94,2288.43,349.58,317.81,30.89,0000 0000 0000 0000 000000
2014-03-22 01:21:45,0.18,5.58,0.00,24.90,29.84,32.48,5.93,32.79,1004.90,2029.00,1766.03,2112.68,2288.19,349.80,318.02,30.90,0000 0000 0000 0000 000000
2014-03-22 01:22:46,0.22,5.58,0.00,24.90,29.85,32.52,5.80,32.63,1004.90,2029.00,1765.95,2112.30,2288.07,349.51,317.75,30.90,0000 0000 0000 0000 000000
2014-03-22 01:23:46,0.22,5.58,0.00,24.90,29.85,32.56,6.00,32.75,1004.90,2028.99,1765.54,2112.11,2288.02,350.47,318.53,30.91,0000 0000 0000 0000 000000
2014-03-22 01:24:46,0.22,5.58,0.00,24.90,29.85,32.53,5.84,32.75,1004.90,2028.99,1765.19,2112.04,2287.98,349.41,317.66,30.92,0000 0000 0000 0000 000000
2014-03-22 01:25:47,0.16,5.58,0.00,24.90,29.85,32.50,5.90,32.79,1004.90,2028.99,1765.07,2112.00,2287.78,350.14,318.32,30.92,0000 0000 0000 0000 000000
2014-03-22 01:26:47,0.11,5.58,0.00,24.90,29.85,32.47,5.96,32.63,1004.90,2028.99,1765.01,2111.93,2287.41,350.06,318.57,30.93,0000 0000 0000 0000 000000
2014-03-22 01:27:47,0.14,5.58,0.00,24.91,29.85,32.49,5.83,32.88,1004.85,2028.98,1764.77,2111.63,2287.16,350.68,319.06,30.93,0000 0000 0000 0000 000000
2014-03-22 01:28:47,0.29,5.59,0.00,24.92,29.85,32.47,5.96,32.75,1004.77,2028.99,1764.38,2111.30,2287.05,350.18,318.30,30.94,0000 0000 0000 0000 000000
2014-03-22 01:29:48,0.29,5.59,0.00,24.92,29.85,32.45,5.84,32.79,1004.73,2028.99,1764.13,2111.13,2287.01,349.12,317.32,30.95,0000 0000 0000 0000 000000
2014-03-22 01:30:48,0.18,5.59,0.00,24.92,29.86,32.47,5.70,32.75,1004.61,2028.98,1764.04,2111.04,2286.85,349.76,317.86,30.95,0000 0000 0000 0000 000000
2014-03-22 01:31:48,0.10,5.59,0.00,24.92,29.87,32.52,5.86,32.79,1004.53,2028.98,1763.96,2111.01,2286.54,350.05,318.10,30.96,0000 0000 0000 0000 000000
2014-03-22 01:32:48,0.12,5.59,0.00,24.92,29.87,32.51,5.91,32.67,1004.48,2028.98,1763.57,2111.00,2286.23,350.61,318.46,30.96,0000 0000 0000 0000 000000
2014-03-22 01:33:49,0.22,5.59,0.00,24.93,29.87,32.50,5.87,32.58,1004.46,2028.99,1763.23,2111.00,2286.09,350.42,318.41,30.97,0000 0000 0000 0000 000000
2014-03-22 01:34:49,0.17,5.59,0.00,24.93,29.87,32.47,5.99,32.67,1004.46,2028.99,1763.08,2110.93,2286.03,350.21,318.43,30.97,0000 0000 0000 0000 000000
2014-03-22 01:35:49,0.11,5.59,0.00,24.95,29.87,32.45,6.00,32.79,1004.44,2028.99,1763.02,2110.73,2286.01,349.57,317.73,30.98,0000 0000 0000 0000 000000
2014-03-22 01:36:49,0.13,5.59,0.00,24.95,29.87,32.46,5.88,32.79,1004.42,2028.99,1762.98,2110.33,2285.98,349.89,317.74,30.99,0000 0000 0000 0000 000000
2014-03-22 01:37:50,0.16,5.59,0.00,24.96,29.87,32.46,5.89,32.42,1004.42,2028.98,1762.68,2110.12,2285.67,350.92,318.96,30.99,0000 0000 0000 0000 000000
2014-03-22 01:38:50,0.29,5.60,0.00,24.97,29.87,32.47,5.88,32.75,1004.43,2028.98,1762.26,2110.04,2285.30,349.79,318.40,31.00,0000 0000 0000 0000 000000
2014-03-22 01:39:50,0.25,5.60,0.00,24.97,29.88,32.48,6.07,33.00,1004.42,2028.99,1762.09,2110.01,2285.11,349.95,317.92,31.00,0000 0000 0000 0000 000000
2014-03-22 01:40:51,0.13,5.60,0.00,24.97,29.89,32.48,5.87,32.63,1004.42,2028.99,1762.03,2109.98,2285.04,349.86,317.83,31.01,0000 0000 0000 0000 000000
2014-03-22 01:41:51,0.05,5.60,0.00,24.97,29.90,32.48,5.97,32.71,1004.43,2028.98,1761.93,2109.77,2285.01,350.31,318.00,31.02,0000 0000 0000 0000 000000
2014-03-22 01:42:51,0.18,5.60,0.00,24.97,29.90,32.54,5.89,32.67,1004.42,2028.95,1761.48,2109.36,2284.89,349.81,317.79,31.02,0000 0000 0000 0000 000000
2014-03-22 01:43:51,0.32,5.60,0.00,24.97,29.90,32.51,5.88,32.67,1004.43,2028.93,1761.19,2109.14,2284.65,349.42,317.44,31.03,0000 0000 0000 0000 000000
2014-03-22 01:44:52,0.24,5.60,0.00,24.97,29.90,32.51,6.04,32.75,1004.41,2028.93,1761.06,2109.05,2284.35,350.56,318.46,31.03,0000 0000 0000 0000 000000
2014-03-22 01:45:52,0.15,5.60,0.00,24.97,29.90,32.53,5.73,32.63,1004.42,2028.94,1761.02,2109.02,2284.14,349.63,317.90,31.04,0000 0000 0000 0000 000000
2014-03-22 01:46:52,0.09,5.60,0.00,24.97,29.90,32.56,5.89,32.67,1004.42,2028.95,1760.94,2109.00,2284.05,349.92,317.89,31.05,0000 0000 0000 0000 000000
2014-03-22 01:47:53,0.08,5.60,0.00,24.97,29.90,32.56,5.83,32.71,1004.42,2028.94,1760.57,2108.97,2284.01,349.65,317.65,31.05,0000 0000 0000 0000 000000
2014-03-22 01:48:53,0.15,5.61,0.00,24.97,29.90,32.57,5.90,32.79,1004.42,2028.93,1760.22,2108.77,2283.97,350.24,318.18,31.06,0000 0000 0000 0000 000000
2014-03-22 01:49:53,0.23,5.61,0.00,24.97,29.92,32.63,6.06,32.83,1004.43,2028.94,1760.08,2108.37,2283.76,350.07,318.03,31.06,0000 0000 0000 0000 000000
2014-03-22 01:50:53,0.26,5.61,0.00,24.97,29.92,32.61,5.93,32.67,1004.45,2028.95,1760.01,2108.15,2283.36,350.74,318.64,31.07,0000 0000 0000 0000 000000
2014-03-22 01:51:53,0.21,5.61,0.00,24.97,29.92,32.62,5.84,32.58,1004.43,2028.91,1759.68,2108.05,2283.14,350.14,318.40,31.07,0000 0000 0000 0000 000000
2014-03-22 01:52:54,0.20,5.61,0.00,24.97,29.92,32.62,6.09,32.83,1004.44,2028.92,1759.28,2108.02,2283.05,350.87,318.75,31.08,0000 0000 0000 0000 000000
2014-03-22 01:53:54,0.17,5.61,0.00,24.98,29.92,32.59,5.84,32.83,1004.42,2028.93,1759.10,2108.00,2283.01,350.32,318.24,31.09,0000 0000 0000 0000 000000
2014-03-22 01:54:54,0.08,5.61,0.00,24.98,29.92,32.58,5.90,32.92,1004.41,2028.94,1759.03,2107.97,2282.98,349.97,318.06,31.09,0000 0000 0000 0000 000000
2014-03-22 01:55:55,0.07,5.61,0.00,24.99,29.92,32.61,6.13,32.88,1004.41,2028.96,1758.86,2107.70,2282.79,350.72,318.79,31.10,0000 0000 0000 0000 000000
2014-03-22 01:56:55,0.29,5.61,0.00,24.99,29.92,32.65,5.72,32.54,1004.41,2028.95,1758.39,2107.35,2282.37,349.28,317.28,31.10,0000 0000 0000 0000 000000
2014-03-22 01:57:55,0.41,5.62,0.00,24.99,29.92,32.63,5.78,32.71,1004.42,2028.93,1758.14,2107.13,2282.14,350.28,318.19,31.11,0000 0000 0000 0000 000000
2014-03-22 01:58:55,0.16,5.62,0.00,25.00,29.93,32.63,5.88,32.67,1004.41,2028.92,1758.03,2107.05,2282.04,350.97,318.82,31.12,0000 0000 0000 0000 000000
2014-03-22 01:59:55,0.09,5.62,0.00,25.00,29.94,32.65,6.03,32.71,1004.42,2028.93,1757.85,2107.01,2281.99,350.40,318.49,31.12,0000 0000 0000 0000 000000
2014-03-22 02:00:56,0.13,5.62,0.00,25.00,29.94,32.68,6.07,32.83,1004.42,2028.95,1757.50,2106.97,2281.78,350.55,318.36,31.13,0000 0000 0000 0000 000000
2014-03-22 02:01:56,0.24,5.62,0.00,25.00,29.95,32.69,5.77,32.75,1004.42,2028.94,1757.19,2106.63,2281.36,349.58,316.83,31.13,0000 0000 0000 0000 000000
2014-03-22 02:02:56,0.38,5.62,0.00,25.00,29.95,32.68,6.05,32.79,1004.41,2028.94,1757.04,2106.24,2281.12,349.39,317.38,31.14,0000 0000 0000 0000 000000
2014-03-22 02:03:56,0.23,5.62,0.00,25.00,29.95,32.66,5.78,32.63,1004.43,2028.94,1756.88,2106.09,2281.04,349.10,317.39,31.14,0000 0000 0000 0000 000000
2014-03-22 02:04:57,0.17,5.63,0.00,25.00,29.95,32.63,5.73,32.63,1004.42,2028.96,1756.57,2106.03,2280.92,350.15,318.07,31.15,0000 0000 0000 0000 000000
2014-03-22 02:05:57,0.17,5.63,0.00,25.01,29.95,32.65,6.15,32.79,1004.45,2028.98,1756.27,2105.99,2280.64,350.92,318.76,31.16,0000 0000 0000 0000 000000
2014-03-22 02:06:57,0.24,5.63,0.00,25.02,29.95,32.67,5.91,32.63,1004.44,2028.98,1756.10,2105.98,2280.24,350.00,317.83,31.16,0000 0000 0000 0000 000000
2014-03-22 02:07:57,0.16,5.63,0.00,25.03,29.95,32.64,5.82,32.58,1004.42,2028.93,1756.02,2105.82,2280.08,348.76,316.78,31.17,0000 0000 0000 0000 000000
2014-03-22 02:08:57,0.13,5.63,0.00,25.04,29.95,32.66,5.86,32.54,1004.44,2028.94,1755.83,2105.39,2280.00,349.77,317.69,31.17,0000 0000 0000 0000 000000
2014-03-22 02:09:57,0.26,5.63,0.00,25.04,29.95,32.64,5.87,32.50,1004.44,2028.94,1755.43,2105.15,2279.80,350.27,317.87,31.18,0000 0000 0000 0000 000000
2014-03-22 02:10:58,0.28,5.63,0.00,25.05,29.96,32.63,5.93,32.63,1004.41,2028.92,1755.22,2105.05,2279.40,350.30,318.24,31.19,0000 0000 0000 0000 000000
2014-03-22 02:11:58,0.20,5.63,0.00,25.05,29.97,32.66,5.84,32.58,1004.42,2028.83,1755.08,2105.00,2279.16,349.95,317.84,31.19,0000 0000 0000 0000 000000
2014-03-22 02:12:58,0.01,5.63,0.00,25.05,29.97,32.68,5.82,32.63,1004.42,2028.68,1755.03,2104.91,2279.05,350.91,317.99,31.20,0000 0000 0000 0000 000000
2014-03-22 02:13:58,-0.07,5.63,0.00,25.05,29.97,32.66,5.93,32.46,1004.42,2028.62,1754.87,2104.66,2279.01,350.22,318.07,31.20,0000 0000 0000 0000 000000
2014-03-22 02:14:58,0.17,5.63,0.00,25.05,29.97,32.66,6.09,32.63,1004.43,2028.73,1754.49,2104.28,2278.78,350.81,318.89,31.21,0000 0000 0000 0000 000000
2014-03-22 02:15:59,0.48,5.64,0.00,25.04,29.97,32.65,6.01,32.63,1004.42,2028.83,1754.21,2104.11,2278.46,350.61,318.44,31.21,0000 0000 0000 0000 000000
2014-03-22 02:16:59,0.32,5.64,0.00,25.03,29.97,32.68,5.90,32.58,1004.42,2028.87,1754.08,2104.04,2278.19,350.42,318.28,31.22,0000 0000 0000 0000 000000
2014-03-22 02:17:59,0.20,5.64,0.00,25.04,29.97,32.70,5.80,32.54,1004.42,2028.81,1754.02,2103.99,2278.07,349.68,317.71,31.23,0000 0000 0000 0000 000000
2014-03-22 02:18:59,0.03,5.64,0.00,25.04,29.97,32.68,5.90,32.50,1004.41,2028.80,1754.00,2103.96,2278.02,349.34,317.31,31.23,0000 0000 0000 0000 000000
2014-03-22 02:20:00,0.01,5.64,0.00,25.04,29.97,32.69,6.18,32.88,1004.42,2028.82,1753.95,2103.85,2277.98,350.55,318.68,31.24,0000 0000 0000 0000 000000
2014-03-22 02:21:00,0.09,5.64,0.00,25.04,29.97,32.73,6.09,32.67,1004.41,2028.74,1753.76,2103.42,2277.82,350.39,318.47,31.24,0000 0000 0000 0000 000000
2014-03-22 02:22:00,0.19,5.64,0.00,25.04,29.98,32.73,5.96,32.42,1004.41,2028.72,1753.50,2103.16,2277.49,349.98,317.85,31.25,0000 0000 0000 0000 000000
2014-03-22 02:23:00,0.27,5.64,0.00,25.05,29.99,32.73,6.02,32.83,1004.42,2028.69,1753.19,2103.06,2277.21,350.71,318.43,31.26,0000 0000 0000 0000 000000
2014-03-22 02:24:01,0.16,5.64,0.00,25.05,29.99,32.72,6.12,32.58,1004.45,2028.70,1753.07,2103.02,2277.09,350.26,318.27,31.26,0000 0000 0000 0000 000000
2014-03-22 02:25:01,0.16,5.65,0.00,25.06,30.00,32.73,5.83,32.50,1004.45,2028.66,1753.02,2102.99,2277.02,349.53,317.45,31.27,0000 0000 0000 0000 000000
2014-03-22 02:26:01,0.01,5.65,0.00,25.07,30.00,32.73,5.98,32.75,1004.44,2028.44,1752.91,2102.82,2276.99,349.98,317.84,31.27,0000 0000 0000 0000 000000
2014-03-22 02:27:01,-0.11,5.64,0.00,25.07,30.00,32.66,5.98,32.67,1004.43,2028.39,1752.50,2102.42,2276.74,350.53,318.34,31.28,0000 0000 0000 0000 000000
2014-03-22 02:28:01,0.29,5.65,0.00,25.07,30.00,32.69,5.78,32.54,1004.43,2028.42,1752.19,2102.17,2276.37,349.77,317.65,31.29,0000 0000 0000 0000 000000
2014-03-22 02:29:02,0.35,5.65,0.00,25.07,30.00,32.71,6.00,32.67,1004.43,2028.34,1752.07,2102.07,2276.14,349.81,317.69,31.29,0000 0000 0000 0000 000000
2014-03-22 02:30:02,0.11,5.65,0.00,25.07,30.00,32.71,5.92,32.75,1004.41,2028.24,1752.02,2102.02,2276.05,350.40,318.22,31.30,0000 0000 0000 0000 000000
2014-03-22 02:31:02,-0.04,5.65,0.00,25.07,30.00,32.73,5.91,32.54,1004.44,2028.14,1751.94,2101.98,2276.00,350.39,318.22,31.30,0000 0000 0000 0000 000000
2014-03-22 02:32:03,-0.05,5.65,0.00,25.07,30.00,32.74,5.86,32.58,1004.46,2028.11,1751.66,2101.81,2275.95,349.76,317.66,31.31,0000 0000 0000 0000 000000
2014-03-22 02:33:03,0.17,5.65,0.00,25.07,30.00,32.72,5.99,32.38,1004.48,2028.10,1751.31,2101.45,2275.62,350.22,318.07,31.31,0000 0000 0000 0000 000000
2014-03-22 02:34:03,0.36,5.65,0.00,25.08,30.00,32.77,5.98,32.54,1004.44,2028.04,1751.12,2101.18,2275.24,350.31,318.13,31.32,0000 0000 0000 0000 000000
2014-03-22 02:35:03,0.21,5.65,0.00,25.09,30.01,32.78,5.89,32.54,1004.43,2028.02,1751.04,2101.06,2275.08,350.14,317.96,31.33,0000 0000 0000 0000 000000
2014-03-22 02:36:04,0.11,5.65,0.00,25.09,30.02,32.77,6.14,32.58,1004.44,2028.08,1751.00,2101.01,2275.03,350.98,318.73,31.33,0000 0000 0000 0000 000000